Flag for Vietnam Weather past 2 weeks in Da Nang, Vietnam

Now
86 °F

Passing clouds.


Feels Like: 97 °F
Forecast: 77 / 94 °F
Wind: 3 mph from Southwest

Location: Da Nang Airport

Current Time: Sep 5, 2015 at 8:17:07 PM

Latest Report: Sep 5, 2015 at 7:30 PM


Visibility: 5 mi

Pressure: 29.83 "Hg

Humidity: 75%

Dew point: 77 °F

Location of Da NangLocation

Historic Weather in Da Nang — Graph

°F

Da Nang temperature yesterday

Maximum temperature yesterday: 79 °F (at 12:30 AM)
Minimum temperature yesterday: 77 °F (at 12:00 AM)
Average temperature yesterday: 77 °F

Past Weeks' High & Low Weather Summary

 TemperatureHumidityPressure
High115 °F (Aug 23, 6:30 PM)100% (Aug 23, 4:30 PM)29.92 "Hg (Aug 23, 4:30 PM)
Low75 °F (Aug 26, 4:30 PM)44% (Aug 22, 10:30 AM)29.56 "Hg (Aug 22, 2:30 PM)
Average85 °F77%29.72 "Hg
* Reported Aug 21 7:00 PM — Sep 5 7:00 PM, Da Nang, Weather by CustomWeather, © 2015

Note: Actual official high and low records may vary slightly from our data, if they occured in-between our weather recording intervals... More about our weather records

Advertising

Da Nang weather history for previous 24 hours

 ConditionsComfort  
Time TempWeatherWind HumidityBarometerVisibility
7:00 PM
Sat, Sep 5
86 °FPassing clouds.2 mph75%29.83 "Hg5 mi
6:30 PM88 °FPassing clouds.3 mph70%29.83 "Hg5 mi
6:00 PM88 °FPassing clouds.5 mph66%29.80 "HgN/A
5:30 PM88 °FPassing clouds.6 mph66%29.80 "HgN/A
5:00 PM90 °FPassing clouds.7 mph67%29.80 "HgN/A
4:30 PM90 °FPassing clouds.7 mph63%29.77 "HgN/A
3:30 PM91 °FPassing clouds.8 mph56%29.77 "HgN/A
3:00 PM91 °FPassing clouds.7 mph59%29.80 "HgN/A
2:30 PM91 °FPassing clouds.8 mph56%29.80 "HgN/A
2:00 PM91 °FPassing clouds.8 mph52%29.80 "HgN/A
1:30 PM93 °FPassing clouds.8 mph53%29.83 "HgN/A
1:00 PM91 °FPassing clouds.6 mph56%29.83 "HgN/A
12:30 PM91 °FPassing clouds.5 mph63%29.86 "HgN/A
12:00 PM91 °FPassing clouds.5 mph59%29.89 "HgN/A
11:30 AM91 °FPassing clouds.6 mph59%29.89 "HgN/A
11:00 AM91 °FPassing clouds.6 mph63%29.89 "HgN/A
10:30 AM91 °FPassing clouds.3 mph56%29.92 "HgN/A
Weather by CustomWeather, © 2015

See weather overviewHow to use our weather pages